This is the latest recevied weather packets stored in our database for station/object K4KMJ. If no packets are shown the sender has not sent any weather packets the latest 10 day(s).
| Time | Temp. | Humidity | Pressure | Rain* | Wind** | Luminosity | Snow |
|---|---|---|---|---|---|---|---|
| 1777640008 | 25° C | 93% | 1014.5 hPa | 0 mm | - | 214 W/m² | - |
| 1777639705 | 25° C | 94% | 1014.4 hPa | 0 mm | - | 316 W/m² | - |
| 1777639402 | 24.44° C | 95% | 1014.3 hPa | 0 mm | - | 221 W/m² | - |
| 1777639102 | 24.44° C | 95% | 1014.1 hPa | 0 mm | - | 184 W/m² | - |
| 1777638800 | 24.44° C | 96% | 1014.1 hPa | 0 mm | - | 173 W/m² | - |
| 1777638495 | 23.89° C | 96% | 1014 hPa | 0 mm | - | 147 W/m² | - |
| 1777638192 | 23.89° C | 96% | 1014 hPa | 0 mm | - | 120 W/m² | - |
| 1777637888 | 23.89° C | 97% | 1014 hPa | 0 mm | - | 116 W/m² | - |
| 1777637584 | 23.89° C | 97% | 1014 hPa | 0 mm | - | 109 W/m² | - |
| 1777637282 | 23.89° C | 97% | 1013.9 hPa | 0 mm | - | 102 W/m² | - |
| 1777636978 | 23.89° C | 97% | 1014 hPa | 0 mm | - | 98 W/m² | - |
| 1777636674 | 23.89° C | 97% | 1013.9 hPa | 0 mm | - | 162 W/m² | - |
| 1777636371 | 23.33° C | 97% | 1013.8 hPa | 0 mm | - | 102 W/m² | - |
| 1777636070 | 23.33° C | 98% | 1013.8 hPa | 0 mm | - | 82 W/m² | - |
| 1777635767 | 23.33° C | 98% | 1013.6 hPa | 0 mm | - | 59 W/m² | - |
| 1777635464 | 22.78° C | 98% | 1013.9 hPa | 0 mm | - | 46 W/m² | - |
| 1777635161 | 22.78° C | 98% | 1013.5 hPa | 0 mm | - | 32 W/m² | - |
| 1777634856 | 22.78° C | 97% | 1013.6 hPa | 0 mm | - | 21 W/m² | - |
| 1777634554 | 22.78° C | 97% | 1013.3 hPa | 0 mm | - | 27 W/m² | - |
| 1777634251 | 22.78° C | 97% | 1013.5 hPa | 0 mm | - | 16 W/m² | - |
| 1777633947 | 22.78° C | 97% | 1013.6 hPa | 0 mm | - | 15 W/m² | - |
| 1777633644 | 22.78° C | 97% | 1013.2 hPa | 0 mm | - | 15 W/m² | - |
| 1777633343 | 22.78° C | 97% | 1013.3 hPa | 0 mm | - | 12 W/m² | - |
| 1777633040 | 22.78° C | 97% | 1013.3 hPa | 0 mm | - | 8 W/m² | - |
| 1777632736 | 22.78° C | 97% | 1013.3 hPa | 0 mm | - | 4 W/m² | - |
* Rain latest hour (hover to see other rain measurements)
** Current wind speed in m/s (hover to see current wind gust speed)